N8DH Weather Reports


time (UTC)temp
F
wind
direction
speed
knots
gust
knots
rain 1hr
in
rain 24hr
in
rain mn
in
humidity
%
barometer
mb
20260506111608 45 249 0.9 1.7 0.00 1.22 0.20 92 1002.4
20260506110019 45 292 0.0 1.7 0.00 1.22 0.20 92 1002.0
20260506104545 45 256 0.9 1.7 0.00 1.22 0.20 92 1001.8
20260506103137 45 271 0.0 1.7 0.00 1.22 0.20 93 1001.7
20260506101511 45 334 0.9 2.6 0.00 1.22 0.20 93 1001.9
20260506100057 45 230 0.9 2.6 0.00 1.22 0.20 93 1002.1
20260506094636 45 276 0.0 1.7 0.00 1.22 0.20 93 1001.0
20260506093145 45 270 0.0 1.7 0.01 1.22 0.20 93 1001.2
20260506091602 45 255 0.0 1.7 0.01 1.22 0.20 93 1001.6
20260506090145 45 263 0.0 1.7 0.02 1.22 0.20 93 1002.1
20260506084612 45 259 0.0 1.7 0.03 1.21 0.19 94 1002.0
20260506083018 45 251 0.0 1.7 0.05 1.21 0.19 94 1001.6
20260506081545 45 298 0.0 1.7 0.05 1.21 0.19 94 1001.6
20260506080108 45 309 0.0 1.7 0.06 1.20 0.18 94 1001.7
20260506073021 45 250 0.0 2.6 0.05 1.15 0.14 94 1001.8
20260506071604 46 279 0.9 2.6 0.05 1.14 0.13 94 1001.6
20260506070138 46 311 0.0 1.7 0.05 1.13 0.12 94 1001.5
20260506061618 46 28 0.0 2.6 0.04 1.10 0.08 92 1001.3
20260506060141 46 360 0.0 1.7 0.04 1.09 0.07 92 1001.7
20260506050137 46 323 0.0 1.7 0.03 1.05 0.03 92 1001.7
20260506044512 46 347 0.0 2.6 0.02 1.04 0.02 90 1001.7
20260506043100 46 350 0.9 2.6 0.03 1.04 0.02 91 1001.8
20260506041527 46 28 0.9 3.5 0.04 1.03 0.01 91 1001.9
20260506040054 47 10 1.7 3.5 0.05 1.02 0.00 92 1002.0
20260506034642 47 55 0.0 2.6 0.08 1.02 1.02 93 1002.2
20260506033155 48 299 0.9 3.5 0.11 1.01 1.01 94 1002.4
20260506031511 48 303 0.0 1.7 0.13 0.99 0.99 94 1002.5
20260506030055 48 323 0.0 1.7 0.15 0.97 0.97 94 1002.5
20260506024641 48 304 0.0 2.6 0.16 0.94 0.94 94 1002.4
20260506023030 48 306 0.0 1.7 0.18 0.90 0.90 94 1002.5
20260506021606 49 306 0.0 1.7 0.16 0.86 0.86 94 1002.3
20260506020138 49 32 0.0 1.7 0.14 0.82 0.82 94 1002.0
20260506014516 49 5 0.0 1.7 0.09 0.77 0.77 94 1001.7
20260506013109 49 16 0.0 2.6 0.05 0.72 0.72 94 1001.7
20260506011647 49 31 1.7 2.6 0.03 0.70 0.70 94 1001.5
20260506010024 49 40 0.9 2.6 0.03 0.68 0.68 94 1001.6
20260506004555 49 292 0.0 1.7 0.05 0.68 0.68 94 1001.7
20260506003009 49 326 0.0 1.7 0.07 0.67 0.67 94 1001.6
20260506001556 49 355 0.0 7.0 0.08 0.67 0.67 94 1001.3
20260506000144 49 283 2.6 5.2 0.06 0.65 0.65 93 1001.4
20260505234516 50 16 1.7 5.2 0.04 0.62 0.62 93 1000.7
20260505233108 50 44 1.7 5.2 0.04 0.60 0.60 93 1000.9
20260505231520 50 12 0.9 3.5 0.08 0.59 0.59 93 1001.0
20260505230108 50 20 0.9 3.5 0.11 0.59 0.59 93 1000.9
20260505224642 50 320 0.0 1.7 0.12 0.57 0.57 93 1001.6
20260505223027 50 262 1.7 4.3 0.15 0.56 0.56 93 1001.7
20260505221552 50 299 0.9 3.5 0.14 0.51 0.51 92 1001.3
20260505220038 52 305 0.0 2.6 0.14 0.48 0.48 93 1000.8
20260505214606 53 240 0.9 1.7 0.16 0.46 0.46 92 1000.8
20260505213040 56 205 0.0 2.6 0.17 0.41 0.41 93 1000.4
20260505211612 56 232 0.9 4.3 0.17 0.37 0.37 93 1000.5
20260505210016 56 220 0.0 3.5 0.19 0.34 0.34 93 1000.5
20260505204608 56 202 0.0 3.5 0.18 0.30 0.30 93 1000.6
20260505203041 56 294 0.9 2.6 0.16 0.24 0.24 93 1000.7
20260505201604 56 247 0.0 4.3 0.15 0.20 0.20 92 1000.6
20260505200029 57 276 0.0 3.5 0.12 0.15 0.15 92 1000.6
20260505194607 57 294 0.0 3.5 0.11 0.12 0.12 91 1000.6
20260505193002 57 259 0.9 4.3 0.08 0.08 0.08 90 1000.8
20260505191602 57 227 0.0 4.3 0.05 0.05 0.05 89 1000.9
20260505190142 58 252 1.7 3.5 0.03 0.03 0.03 87 1000.9
20260505184506 58 239 0.9 4.3 0.01 0.01 0.01 86 1001.0
20260505183100 60 244 1.7 6.1 0.00 0.00 0.00 81 1001.1
20260505181509 61 270 1.7 7.0 0.00 0.00 0.00 76 1000.8
20260505174638 63 253 3.5 8.7 0.00 0.00 0.00 71 1000.6
20260505173143 64 219 5.2 13.0 0.00 0.00 0.00 70 1000.6
20260505171541 64 193 3.5 8.7 0.00 0.00 0.00 70 1000.6
20260505170109 63 200 1.7 9.6 0.00 0.00 0.00 71 1000.6
20260505164551 64 234 5.2 10.4 0.00 0.00 0.00 69 1000.6
20260505163106 64 250 3.5 12.2 0.00 0.00 0.00 68 1000.6
20260505161642 64 275 4.3 14.8 0.00 0.00 0.00 68 1000.4
20260505153046 67 205 7.8 18.2 0.00 0.00 0.00 62 999.9
20260505151611 66 206 9.6 21.7 0.00 0.00 0.00 63 999.3
20260505150144 66 229 6.1 17.4 0.00 0.00 0.00 63 999.0
20260505140110 64 188 2.6 14.8 0.00 0.00 0.00 67 999.2
20260505130103 61 184 7.0 15.6 0.00 0.00 0.00 73 998.7
20260505124644 61 204 4.3 8.7 0.00 0.00 0.00 74 999.0
20260505123047 61 184 6.1 14.8 0.00 0.00 0.00 73 999.1
20260505121521 61 211 6.1 9.6 0.00 0.00 0.00 71 998.8
20260505120051 61 187 5.2 11.3 0.00 0.00 0.00 71 998.5
20260505114642 61 177 4.3 7.8 0.00 0.00 0.00 71 997.9
20260505113018 60 185 3.5 6.1 0.00 0.00 0.00 72 997.3